This is the latest recevied weather packets stored in our database for station/object KB4RFE. If no packets are shown the sender has not sent any weather packets the latest 10 day(s).
| Time | Temp. | Humidity | Pressure | Rain* | Wind** | Luminosity | Snow |
|---|---|---|---|---|---|---|---|
| 1777936614 | 21.11° C | 51% | 1019.4 hPa | 0 mm | - | 20 W/m² | - |
| 1777936310 | 21.11° C | 53% | 1019.3 hPa | 0 mm | - | 29 W/m² | - |
| 1777936006 | 21.11° C | 51% | 1019.4 hPa | 0 mm | - | 39 W/m² | - |
| 1777935705 | 21.11° C | 52% | 1019.4 hPa | 0 mm | - | 42 W/m² | - |
| 1777935403 | 21.67° C | 53% | 1019.5 hPa | 0 mm | - | 44 W/m² | - |
| 1777935099 | 21.67° C | 51% | 1019.4 hPa | 0 mm | - | 45 W/m² | - |
| 1777934796 | 21.67° C | 51% | 1019.7 hPa | 0 mm | - | 51 W/m² | - |
| 1777934493 | 21.67° C | 52% | 1019.7 hPa | 0 mm | - | 59 W/m² | - |
| 1777934190 | 21.67° C | 48% | 1019.6 hPa | 0 mm | - | 61 W/m² | - |
| 1777933886 | 21.67° C | 47% | 1019.6 hPa | 0 mm | - | 61 W/m² | - |
| 1777933583 | 21.67° C | 45% | 1019.7 hPa | 0 mm | - | 73 W/m² | - |
| 1777933280 | 21.67° C | 47% | 1019.6 hPa | 0 mm | - | 81 W/m² | - |
| 1777932977 | 21.67° C | 47% | 1019.5 hPa | 0 mm | - | 91 W/m² | - |
| 1777932674 | 21.67° C | 48% | 1019.6 hPa | 0 mm | - | 96 W/m² | - |
| 1777932370 | 21.67° C | 46% | 1019.7 hPa | 0 mm | - | 107 W/m² | - |
| 1777932068 | 22.22° C | 46% | 1019.6 hPa | 0 mm | - | 112 W/m² | - |
| 1777931764 | 22.22° C | 46% | 1019.6 hPa | 0 mm | - | 132 W/m² | - |
| 1777931462 | 22.22° C | 47% | 1019.4 hPa | 0 mm | - | 157 W/m² | - |
| 1777931157 | 22.22° C | 49% | 1019.6 hPa | 0 mm | - | 138 W/m² | - |
| 1777930854 | 22.22° C | 48% | 1019.5 hPa | 0 mm | - | 162 W/m² | - |
| 1777930550 | 22.22° C | 48% | 1019.4 hPa | 0 mm | - | 388 W/m² | - |
| 1777930247 | 22.22° C | 47% | 1019.6 hPa | 0 mm | - | 366 W/m² | - |
| 1777929943 | 22.22° C | 49% | 1019.5 hPa | 0 mm | - | 418 W/m² | - |
| 1777929641 | 22.78° C | 48% | 1019.6 hPa | 0 mm | - | 413 W/m² | - |
| 1777929337 | 22.78° C | 47% | 1019.5 hPa | 0 mm | - | 453 W/m² | - |
* Rain latest hour (hover to see other rain measurements)
** Current wind speed in m/s (hover to see current wind gust speed)